Location: Galbiate
(45.8167°N, 9.3833°E)
Time: 15:39:43
(UTC+00:00)

Daily predictions for brighter satellites

Satellite Brightness Start Highest point End
(mag) Time Altitude Azimuth Time Altitude Azimuth Time Altitude Azimuth
Cosmos 1777 Rocket 4.0 17:22:17 10° NNW 17:27:35 71° ENE 17:32:49 10° SSE
Cosmos 2233 Rocket 4.1 17:24:39 10° SSE 17:30:33 51° E 17:36:32 10° NNE
NOSS 2-3 (E) 4.1 17:27:09 10° S 17:31:09 41° ESE 17:35:47 10° NE
STARLINK-1044 3.9 17:27:22 10° SW 17:31:22 51° SE 17:35:24 10° ENE
STARLINK-1010 3.5 17:28:54 10° WSW 17:32:07 54° NNW 17:35:21 10° NE
Cosmos 44 3.2 17:27:58 10° NNW 17:32:18 57° NE 17:36:47 10° SE
STARLINK-1031 3.7 17:28:53 10° SW 17:32:52 59° SE 17:36:52 10° ENE
STARLINK 1040 3.7 17:30:34 10° W 17:33:15 39° NNW 17:35:55 10° NE
Lacrosse 4 Rocket 3.3 17:29:48 10° WSW 17:33:33 30° NW 17:37:26 10° NNE
Cosmos 1238 Rocket 4.4 17:27:33 10° SSW 17:33:59 74° W 17:40:40 10° N
Cosmos 1633 4.2 17:33:31 10° SSW 17:36:54 39° WNW 17:40:20 10° N
Sich 1 3.4 17:33:17 10° SSW 17:37:33 70° W 17:41:49 10° N
STARLINK-24 4.3 17:35:32 10° W 17:39:26 49° NNW 17:43:22 10° NE
Cosmos 1939 Rocket 3.1 17:35:39 10° SSE 17:39:39 50° ENE 17:43:41 10° N
STARLINK-1029 3.3 17:37:11 10° WSW 17:40:19 59° NNW 17:43:28 10° NE
STARLINK-1037 3.8 17:37:09 10° SW 17:41:14 61° SE 17:45:19 10° ENE
USA 234 4.3 17:35:51 10° ENE 17:41:34 34° N 17:47:19 10° WNW
CZ-4 R/B 1.5 17:40:30 10° SSE 17:44:42 88° ENE 17:48:52 10° NNW
Cosmos 1656 Rocket 4.2 17:39:52 10° S 17:44:48 35° ESE 17:49:50 10° NE
STARLINK-29 3.0 17:41:40 10° WNW 17:45:04 75° NNE 17:48:27 10° ESE
NOSS 2-3 (D) 3.9 17:41:59 10° SSW 17:46:07 52° ESE 17:50:56 10° NE
STARLINK-1059 3.7 17:42:10 10° SW 17:46:16 66° SE 17:50:19 10° ENE
SL-27 R/B 2.9 17:43:22 10° NNW 17:46:40 61° WSW 17:49:55 10° S
STARLINK-1016 3.9 17:44:22 10° W 17:47:32 44° NNW 17:50:43 10° NE
STARLINK-1008 3.9 17:44:45 10° W 17:47:57 44° NNW 17:51:10 10° NE
USA 229 DEB 3.9 17:41:35 10° SW 17:48:08 75° NW 17:55:04 10° NE
USA 229 3.9 17:41:42 10° SW 17:48:14 76° NW 17:55:09 10° NE
STARLINK-81 4.3 17:45:13 10° W 17:49:07 46° NNW 17:53:01 10° NE
Cosmos 1470 Rocket 3.7 17:45:11 10° SSE 17:49:22 49° E 17:53:38 10° NNE
STARLINK-54 4.4 17:47:08 10° W 17:51:00 44° NNW 17:54:53 10° NE
STARLINK-1057 3.6 17:47:08 10° SW 17:51:15 71° SE 17:55:07 12° ENE
STARLINK-1025 4.0 17:48:07 10° W 17:51:17 42° NNW 17:54:25 10° NE
STARLINK-77 4.4 17:48:34 10° W 17:52:27 45° NNW 17:56:20 10° NE
STARLINK-1017 4.0 17:49:47 10° W 17:52:57 41° NNW 17:56:01 11° NE
STARLINK-22 4.5 17:50:12 10° W 17:53:14 31° NNW 17:56:16 10° NE
STARLINK-25 4.4 17:50:15 10° W 17:54:07 44° NNW 17:57:55 10° NE
Centaur D AC-28 4.4 17:43:57 10° WSW 17:54:33 22° SSW 17:58:46 10° SSE
NOSS 3-1 (A) 3.3 17:49:47 10° SW 17:55:16 85° SE 18:01:43 10° NE
STARLINK-71 4.5 17:52:11 10° W 17:56:01 41° NNW 17:59:44 11° NE
Cosmos 1862 Rocket 3.4 17:51:44 10° N 17:56:06 77° E 18:00:27 10° SSE
STARLINK-1034 3.6 17:52:04 10° SW 17:56:12 77° SSE 17:59:53 13° ENE
COSMO-SKYMED 1 3.1 17:52:06 10° N 17:56:24 63° WNW 18:00:41 10° SSW
Cosmos 2242 Rocket 3.9 17:52:02 10° N 17:56:25 46° ENE 18:00:48 10° SSE
STARLINK-79 4.5 17:53:34 10° W 17:57:25 43° NNW 18:01:05 11° NE
Okean-O 4.2 17:53:20 10° SSW 17:57:30 40° W 18:01:42 10° NNW
STARLINK-52 3.0 17:54:33 10° WNW 17:57:56 84° NE 18:00:48 14° ESE
STARLINK-1048 4.1 17:54:54 10° W 17:58:03 39° NNW 18:00:54 12° NE
STARLINK-78 4.5 17:55:17 10° W 17:59:07 42° NNW 18:02:42 12° NE
STARLINK-1049 4.1 17:56:37 10° W 17:59:44 38° NNW 18:02:33 12° NE
STARLINK-60 4.4 17:57:14 10° WNW 18:00:19 37° SW 18:03:23 10° SSE
STARLINK-1068 3.6 17:57:02 10° SW 18:01:10 83° SSE 18:04:40 14° ENE
STARLINK-1051 4.2 17:58:22 10° W 18:01:30 37° NNW 18:04:14 13° NE
CENTAUR R/B 4.4 17:56:03 10° NW 18:01:39 22° NNE 18:07:34 11° ENE
STARLINK-1028 4.2 17:58:46 10° W 18:01:54 37° NNW 18:04:37 13° NE
FALCON 9 DEB 3.3 17:58:42 10° WNW 18:02:08 70° SW 18:05:18 12° SE
Cosmos 2369 Rocket 2.3 17:57:43 10° SSW 18:03:23 82° WNW 18:09:08 10° NNE
Cosmos 1812 3.6 17:59:40 10° NNW 18:03:28 54° W 18:07:14 10° S
STARLINK-1021 4.2 18:00:33 10° W 18:03:40 37° NNW 18:06:19 13° NE
Ariane Rocket 3.4 17:59:39 10° SE 18:04:26 43° ENE 18:09:15 10° N
Cosmos 921 Rocket 3.9 18:00:23 10° SSW 18:04:49 55° WNW 18:09:16 10° N
STARLINK-1019 4.2 18:02:20 10° W 18:05:28 36° NNW 18:08:02 14° NE
STARLINK-1012 4.3 18:04:09 10° W 18:07:15 35° NNW 18:09:46 14° NE
Lacrosse 5 3.3 18:04:02 10° SSE 18:07:18 17° ESE 18:08:21 16° ESE
IRS-1A Rocket 4.5 18:03:27 10° SE 18:08:40 46° ENE 18:13:54 10° N
Okean 1-7 3.7 18:05:33 10° N 18:09:29 33° ENE 18:13:25 10° SE
STARLINK-1026 4.3 18:07:45 10° W 18:10:51 34° NNW 18:13:12 15° NE
STARLINK-1060 3.6 18:06:59 10° WSW 18:11:07 86° NNW 18:14:12 18° ENE
STARLINK-1014 4.2 18:07:54 10° W 18:11:12 40° NNW 18:13:43 16° NE
SJ-6B 4.0 18:11:06 20° ENE 18:11:26 20° ENE 18:14:16 10° NNE
STARLINK-1013 4.4 18:09:35 10° W 18:12:41 34° NNW 18:14:58 16° NE
Cosmos 1703 Rocket 3.9 18:08:50 10° N 18:13:05 42° ENE 18:17:20 10° SSE
ATLAS 3B R/B 4.5 18:09:04 10° NNW 18:13:13 17° N 18:17:26 10° NE
CZ-2D R/B 3.6 18:09:39 10° S 18:13:32 69° W 18:17:25 10° NNW
STARLINK-1009 4.4 18:11:25 10° W 18:14:29 33° NNW 18:16:41 16° NE
STARLINK-1030 3.6 18:12:00 10° WSW 18:16:08 81° NNW 18:19:01 19° NE
STARLINK-1015 4.4 18:13:16 10° W 18:16:20 33° NNW 18:18:28 16° NE
Cosmos 990 Rocket 4.4 18:11:42 10° N 18:16:32 39° ENE 18:20:03 17° ESE
Cosmos 1833 4.2 18:10:53 10° NNW 18:16:42 82° ENE 18:22:25 10° SSE
NOSS 2-3 (C) 3.8 18:15:54 10° SW 18:20:13 79° NW 18:25:25 10° NE
STARLINK-1020 3.7 18:16:57 10° WSW 18:21:06 76° NNW 18:23:47 21° NE
Cosmos 1869 Rocket 4.3 18:18:02 10° SSE 18:21:52 30° E 18:25:42 10° NNE
SJ 16-02 1.9 18:17:54 10° N 18:22:00 36° ENE 18:23:52 25° ESE
FREGAT/IRIS 4.2 18:23:35 19° NNE 18:23:35 19° NNE 18:24:43 10° N
STARLINK-1065 4.4 18:19:09 10° SSW 18:22:51 32° SE 18:24:01 27° ESE
STARLINK-1047 3.8 18:19:23 10° WSW 18:23:33 72° NNW 18:26:11 22° NE
H-2A R/B 2.4 18:18:32 10° SE 18:23:37 45° ENE 18:28:48 10° N
ARGOS 3.6 18:20:11 11° SE 18:25:00 40° ENE 18:30:03 10° N
STARLINK-1052 3.8 18:21:58 10° WSW 18:26:06 71° NNW 18:28:35 23° NE
Cosmos 1937 Rocket 4.1 18:21:20 10° N 18:26:11 36° ENE 18:28:21 25° ESE
STARLINK-1063 4.3 18:24:04 10° SSW 18:27:50 35° SE 18:28:50 31° ESE
CSL-04 Rocket 4.4 18:22:48 10° S 18:28:14 57° WSW 18:33:39 10° NNW
Cosmos 1346 Rocket 3.0 18:27:30 10° SSW 18:31:29 70° WNW 18:35:27 10° N
STARLINK-1064 4.2 18:28:57 10° SSW 18:32:47 38° SE 18:33:36 34° ESE
BREEZE-M DEB (TANK) 3.5 18:29:56 10° WNW 18:32:49 73° SSW 18:37:09 20° ESE
YAOGAN 1 4.3 18:30:54 10° SSW 18:34:52 35° W 18:38:52 10° NNW
STARLINK-43 4.0 18:32:19 10° NW 18:35:52 41° NNE 18:36:38 35° NE
STARLINK-1033 3.9 18:31:56 10° WSW 18:36:03 63° NNW 18:38:07 27° NE
STARLINK-1041 4.0 18:33:53 10° SSW 18:37:46 41° SE 18:38:25 38° ESE
Nadezhda 4 Rocket 4.2 18:32:46 10° N 18:38:53 49° ENE 18:44:59 10° SSE
Cosmos 1464 Rocket 4.0 18:33:12 10° S 18:39:30 69° E 18:45:51 10° NNE
Cosmos 44 Rocket 3.5 18:37:02 10° NNW 18:41:39 48° NE 18:42:58 38° E
OE (NEXTSAT) 4.2 18:38:48 10° W 18:42:18 87° S 18:42:51 61° ESE
STARLINK-1038 3.9 18:38:47 10° SSW 18:42:44 45° SE 18:43:12 43° ESE
STARLINK-1035 4.2 18:39:06 10° WSW 18:43:17 55° NNW 18:45:13 29° NE
STARLINK-1024 4.1 18:41:59 10° WSW 18:46:03 56° NNW 18:47:43 32° NE
Cosmos 1933 Rocket 4.3 18:43:01 10° SSW 18:47:21 56° WNW 18:51:41 10° N
STARLINK-1046 3.8 18:43:40 10° SW 18:47:39 49° SE 18:47:57 48° SE
Cosmos 2297 Rocket 3.5 18:43:17 10° N 18:47:39 22° NE 18:47:51 22° NE
Meteor 1-20 Rocket 4.2 18:46:27 10° SSW 18:51:55 80° W 18:57:30 10° N
STARLINK-1039 3.7 18:48:35 10° SW 18:52:36 53° SE 18:52:44 53° SE
STARLINK-1027 4.4 18:49:51 10° W 18:53:59 47° NNW 18:55:28 32° NNE
Meteor 1-18 Rocket 4.2 18:49:17 10° N 18:55:14 89° E 19:01:04 10° S
STARLINK-1032 4.3 18:52:00 10° W 18:56:02 50° NNW 18:57:16 36° NNE
Cosmos 405 3.2 18:53:25 10° NNW 18:56:57 69° W 18:58:22 33° S
STARLINK-80 4.4 18:53:35 10° NW 18:57:09 35° NNE 18:57:10 35° NNE
STARLINK-1045 3.6 18:53:32 10° SW 18:57:32 58° SSE 18:57:32 58° SSE
ADEOS Rocket 4.0 18:49:55 10° N 18:57:36 65° WNW 19:05:08 10° SSW
Cosmos 1943 Rocket 4.1 18:53:02 10° WSW 18:57:46 28° NW 19:02:31 10° N
Cosmos 2221 Rocket 4.3 18:53:33 10° N 18:56:58 38° NE 18:56:58 38° NE
COSMOS 2487 3.2 18:54:41 10° NNW 18:58:03 50° WSW 18:59:29 29° SSW
MOS 1 4.2 18:52:38 10° SSE 18:58:18 89° ENE 19:04:00 10° NNW
CZ-2C R/B 3.2 18:53:38 12° SSE 18:59:04 75° ENE 19:04:46 10° N
Cosmos 2034 Rocket 3.8 18:53:56 10° S 19:00:03 70° E 19:06:11 10° NNE
STARLINK-1011 4.3 18:57:00 10° W 19:01:02 47° NNW 19:02:02 38° NNE
Cosmos 468 Rocket 3.9 18:56:27 10° SSW 19:01:44 82° ESE 19:07:04 10° NNE
STARLINK-1050 3.6 18:58:32 10° SW 19:02:26 64° SSE 19:02:26 64° SSE
Okean 1 3.4 18:58:46 10° NNW 19:02:46 75° W 19:04:38 30° S
Timation 2 Rocket 4.1 18:56:22 10° NNW 19:03:18 80° ENE 19:07:09 29° SE
Lacrosse 5 rocket 3.1 18:59:50 10° NW 19:03:33 24° NNE 19:04:00 24° NNE
STARLINK-1036 4.4 19:02:03 10° W 19:06:03 45° NNW 19:06:52 39° NNE
Cosmos 2227 Rocket 3.4 19:01:41 10° N 19:05:52 26° NE 19:05:52 26° NE
SPOT 3 Rocket 3.5 19:05:25 49° SE 19:06:35 64° ENE 19:11:46 10° N
BREEZE-M DEB (TANK) 3.7 19:04:18 10° WNW 19:06:06 45° NW 19:06:06 45° NW
STARLINK-1055 3.7 19:03:28 10° SW 19:07:11 65° S 19:07:11 65° S
Meteor 1-14 Rocket 4.1 19:04:56 10° S 19:10:28 85° W 19:16:04 10° N
STARLINK-1044 4.4 19:07:04 10° W 19:11:02 43° NNW 19:11:38 40° N
STARLINK-1022 3.8 19:08:26 10° SW 19:12:00 62° SSW 19:12:00 62° SSW
Gbstr 26 Del rocket 2.9 19:10:08 10° WSW 19:14:19 88° SSE 19:14:28 84° E
Cosmos 1898 Rocket 3.7 19:09:19 10° NNW 19:14:28 70° WSW 19:17:01 30° S
STARLINK-1042 4.0 19:13:23 10° SW 19:16:45 58° SW 19:16:45 58° SW
STARLINK-1056 4.2 19:18:22 10° SW 19:21:33 52° SW 19:21:33 52° SW
Cosmos 1092 Rocket 3.9 19:17:14 10° N 19:23:35 68° E 19:24:43 57° SE
USA 234 4.0 19:21:54 34° NE 19:23:39 40° NNE 19:29:37 10° NW
Cosmos 1763 Rocket 3.6 19:22:00 10° SSW 19:27:13 76° WNW 19:32:32 10° NNE
STARLINK-1054 4.4 19:23:20 10° WSW 19:26:20 47° WSW 19:26:20 47° WSW
Cosmos 1570 Rocket 3.9 19:25:25 10° SSW 19:30:09 74° S 19:30:09 74° S
Cosmos 2219 3.6 19:25:03 10° NNW 19:29:58 50° NNE 19:29:58 50° NNE
Meteor 2-4 Rocket 3.7 19:24:55 10° N 19:30:52 89° E 19:32:13 57° S
NOSS 3-2 (A) 4.2 19:25:44 10° NNW 19:32:55 52° NE 19:34:00 49° ENE
NOSS 3-2 (C) 4.5 19:27:40 10° NNW 19:34:32 41° NE 19:35:19 40° NE
Resurs 01 Rocket 3.4 19:38:52 24° N 19:38:52 24° N 19:40:39 10° N
Cosmos 2195 Rocket 4.3 19:32:33 10° N 19:38:27 73° ENE 19:38:27 73° ENE
SL-08 RB Rocket 4.5 19:45:57 49° WNW 19:45:57 49° WNW 19:49:50 10° NNW
Lacrosse 5 2.9 19:44:32 10° SW 19:47:37 38° SW 19:47:37 38° SW
MetOp-A 4.3 19:50:10 69° W 19:50:10 69° W 19:55:22 10° NNW
CENTAUR R/B 3.5 19:47:02 10° NNW 19:54:29 45° NE 19:54:46 45° NE
SJ 16-02 3.4 19:56:51 10° NW 20:00:23 24° W 20:00:55 23° WSW
H-2A R/B 4.0 19:58:39 10° SSW 20:03:12 28° W 20:07:50 10° NW
ATLAS 3B R/B 3.8 20:00:11 10° NNW 20:05:09 31° NNE 20:05:09 31° NNE
USA 238 DEB 4.1 20:24:51 10° NW 20:30:43 62° NW 20:30:43 62° NW
USA 238 4.1 20:24:57 10° NW 20:30:47 62° NW 20:30:47 62° NW
Cosmos 2297 Rocket 3.6 20:26:39 10° NNW 20:29:41 33° NW 20:29:41 33° NW
Lacrosse 5 rocket 4.5 20:38:55 10° NW 20:39:39 14° NW 20:39:39 14° NW
Cosmos 2227 Rocket 4.1 20:45:18 10° NNW 20:47:42 26° NW 20:47:42 26° NW
CENTAUR R/B 4.3 21:37:43 10° NW 21:41:57 35° NW 21:41:57 35° NW
